Location: Kansas State University
(39.1938°N, 96.5858°W)
Time: 01:59:15
(UTC-05:00)

Daily predictions for brighter satellites

Satellite Brightness Start Highest point End
(mag) Time Altitude Azimuth Time Altitude Azimuth Time Altitude Azimuth
SL-16 R/B 4.5 03:20:48 23° NNE 03:20:48 23° NNE 03:23:24 10° N
ATLAS 2AS CENTAUR R/B 4.1 03:21:15 37° N 03:21:15 37° N 03:26:00 10° NNE
Resurs 1-4 Rocket 4.5 03:32:31 10° NNE 03:34:07 19° NE 03:34:07 19° NE
Cosmos 2333 Rocket 4.0 03:48:37 10° N 03:53:30 28° ENE 03:58:19 10° ESE
Okean O Rocket 4.4 03:58:48 10° NE 04:00:23 15° ENE 04:00:23 15° ENE
Lacrosse 5 3.6 04:18:01 30° ENE 04:18:01 30° ENE 04:20:50 10° NE
Cosmos 2237 Rocket 3.6 04:13:19 10° N 04:18:28 35° ENE 04:23:35 10° SE
ATLAS 5 CENTAUR R/B 3.5 04:19:08 14° NNW 04:23:59 40° NE 04:30:00 10° ESE
Cosmos 1980 4.5 04:26:50 10° NNW 04:32:22 49° ENE 04:37:51 10° SE
ARIANE 5 R/B 4.4 04:28:30 10° N 04:30:10 20° N 04:30:10 20° N
SL-16 R/B 4.4 04:33:22 10° N 04:37:53 24° NE 04:42:22 10° ESE
RESURS DK-1 4.0 04:46:00 33° ENE 04:46:00 33° ENE 04:48:47 10° NE
Gbstr 26 Del rocket 4.2 04:45:46 69° WNW 04:46:49 81° SW 04:54:55 10° SE
Cosmos 1727 Rocket 4.2 04:46:01 48° SSE 04:47:44 70° E 04:54:01 10° NNE
NOSS 3-4 (A) 3.3 04:48:16 84° SSW 04:48:30 90° ESE 04:55:03 10° NNE
NOSS 3-4 (C) 3.3 04:48:21 84° SSW 04:48:36 89° ESE 04:55:10 10° NE
Cosmos 2227 Rocket 2.2 04:49:37 76° ESE 04:49:37 76° ESE 04:55:16 10° NNE
Cosmos 1680 Rocket 4.1 04:44:34 10° N 04:49:46 55° ENE 04:54:54 10° SSE
CZ-2D R/B 3.5 04:46:37 10° N 04:49:09 27° NNW 04:49:09 27° NNW
Cosmos 2219 Rocket 4.5 05:02:32 10° SSE 05:02:32 10° SSE 05:02:37 10° SSE
Cosmos 2297 Rocket 2.4 04:57:49 52° SSE 04:58:59 65° ESE 05:04:35 10° NNE
SL-16 R/B 4.4 05:05:54 15° NW 05:05:54 15° NW 05:07:02 10° NNW
NOSS 0 Rocket 3.8 05:08:39 10° NNW 05:14:48 63° WSW 05:20:56 10° S
IRS-1C Rocket 3.9 05:10:14 10° N 05:15:32 79° WNW 05:16:36 58° SSW
Resurs 1-4 Rocket 3.7 05:12:43 10° NNW 05:15:12 21° NW 05:15:12 21° NW
CZ-4B DEB 4.2 05:11:49 10° NNE 05:17:19 78° ESE 05:20:39 25° S
Cosmos 1153 Rocket 4.4 05:11:33 10° N 05:17:55 85° W 05:24:19 10° S
Cosmos 2344 4.0 05:16:59 38° W 05:19:05 46° NW 05:27:34 10° NNE
Thor Agena Rocket 4.1 05:14:28 10° SSE 05:19:40 60° ENE 05:24:52 10° N
Cosmos 1605 Rocket 4.0 05:15:54 10° NNW 05:21:52 54° W 05:23:38 41° SW
Cosmos 1339 Rocket 4.4 05:24:12 30° SSW 05:27:31 68° W 05:33:55 10° N
Cosmos 1025 Rocket 2.9 05:28:00 66° WNW 05:28:00 66° WNW 05:32:15 10° N
PAYLOAD B 4.1 05:23:12 10° N 05:28:42 74° WNW 05:31:22 32° SSW
CZ-4B R/B 3.0 05:24:19 10° N 05:28:42 75° WNW 05:29:35 56° SW
Lacrosse 5 rocket 3.8 05:29:15 13° NNW 05:29:37 13° NNW 05:31:46 10° N
Cosmos 2082 3.8 05:28:45 47° W 05:29:45 54° WNW 05:35:16 10° NNE
Cosmos 2333 Rocket 2.5 05:32:33 10° NW 05:37:52 41° WSW 05:43:07 10° S
Okean O Rocket 2.1 05:33:58 10° N 05:37:51 41° WNW 05:37:51 41° WNW
NOSS 3-2 (A) 4.1 05:31:35 10° NW 05:38:55 52° WSW 05:46:41 10° S
Okean 2 3.3 05:39:28 25° S 05:41:48 83° W 05:45:57 10° N
Cosmos 1606 Rocket 3.4 05:39:24 10° NNW 05:43:43 63° W 05:48:00 10° S
DELTA 2 R/B (1) 3.7 05:42:40 35° SW 05:45:01 68° SSE 05:50:34 10° E
MOS 1 Rocket 4.5 05:42:08 10° NNE 05:46:47 46° E 05:51:41 10° S
Delta 2 Rocket 3.5 05:50:41 40° SW 05:51:23 46° S 05:54:47 10° ESE
Cosmos 1898 Rocket 3.4 05:49:41 11° SSW 05:54:44 82° WNW 06:00:03 10° NNE
Cosmos 1726 Rocket 3.5 05:50:26 10° NNW 05:54:45 56° W 05:58:59 10° S
Cosmos 1666 2.7 05:51:34 10° NNW 05:55:21 54° W 05:59:05 10° S
Tiangong 1 1.7 05:55:30 38° NW 05:56:03 43° N 05:58:58 10° ENE
CZ-2C R/B 4.4 05:55:37 31° WSW 05:56:05 32° W 06:00:12 10° NNW
USA 215 4.3 05:51:27 10° S 05:56:10 22° SW 05:56:10 22° SW
Cosmos 2061 Rocket 3.9 05:50:27 10° N 05:56:45 76° W 06:03:06 10° S
CZ-3A R/B 3.5 05:53:25 10° NW 05:57:46 69° NE 06:09:10 10° SE
Lacrosse 5 2.8 05:57:13 25° WNW 05:59:04 32° NW 06:03:39 10° NNE
CZ-4B R/B 3.6 05:54:10 10° N 05:59:12 41° WNW 06:02:41 19° SW
Cosmos 2100 Rocket 4.0 05:53:48 10° NNW 05:59:57 64° W 06:06:09 10° S
Cosmos 1802 Rocket 3.9 05:54:01 10° N 06:00:12 80° W 06:06:19 10° S
Cosmos 2237 Rocket 2.8 05:57:31 10° NW 06:02:24 31° WSW 06:07:15 10° SSW
Cosmos 1602 Rocket 4.2 05:58:12 10° S 06:02:34 59° E 06:06:55 10° NNE
Meteor 2-4 Rocket 4.1 05:59:37 12° SSW 06:04:48 46° WNW 06:10:29 10° N
Cosmos 1892 Rocket 3.9 06:01:57 18° SW 06:04:55 42° W 06:09:12 10° N
Cosmos 858 Rocket 4.4 06:00:05 10° SSW 06:05:19 74° WNW 06:10:38 10° NNE
Cosmos 292 Rocket 3.9 06:01:59 10° NNW 06:06:42 51° WSW 06:11:22 10° S
Cosmos 1937 Rocket 3.4 06:03:28 10° SSW 06:08:41 86° WNW 06:13:59 10° NNE
ATLAS 5 CENTAUR R/B 2.9 06:03:05 10° NW 06:08:44 39° WSW 06:14:41 10° S
Meteor 1-23 Rocket 4.5 06:03:44 10° SSW 06:09:04 45° WNW 06:14:33 10° N
PSLV R/B 3.9 06:08:28 10° N 06:12:36 44° WNW 06:16:40 10° SW
Cosmos 1725 Rocket 4.3 06:06:24 10° N 06:12:42 72° E 06:18:56 10° SSE
NOSS 2-2 (D) 3.9 06:09:47 10° SSW 06:13:46 62° ESE 06:18:17 10° NE
ADEOS II 2.1 06:09:24 10° N 06:14:34 58° WNW 06:19:43 10° SSW
ADEOS Rocket 3.5 06:07:52 10° N 06:14:43 50° WNW 06:20:54 10° SW
CENTAUR R/B 3.3 06:07:16 10° NNW 06:15:10 76° NE 06:23:30 10° SE
NOSS 3-2 (C) 4.5 06:09:53 10° NW 06:16:46 37° WSW 06:24:00 10° S
Meteor PRIRODA 3.9 06:18:02 10° N 06:21:37 46° WNW 06:25:10 10° SSW
USA 129 1.2 06:20:18 10° S 06:22:16 67° W 06:24:06 10° NNW
SL-16 R/B 2.3 06:16:48 10° NNW 06:22:17 50° WSW 06:27:44 10° S
Centaur D-1A AC-35 4.3 06:20:23 10° SSW 06:22:26 14° S 06:24:21 10° SE
RESURS DK-1 4.0 06:21:58 16° WNW 06:23:08 17° NW 06:25:57 10° NNW
Cosmos 972 Rocket 4.4 06:18:20 10° S 06:23:43 78° ESE 06:29:47 10° NNE
Cosmos 2228 3.3 06:22:02 10° NNW 06:26:15 47° W 06:30:26 10° SSW
Cosmos 1346 Rocket 4.2 06:26:51 16° W 06:28:20 19° WNW 06:31:13 10° NNW
Cosmos 1812 Rocket 3.9 06:24:13 10° N 06:28:39 72° E 06:33:06 10° SSE
NOSS 2-2 (C) 3.5 06:25:01 10° SSW 06:29:06 89° NW 06:33:46 10° NNE
OAO 2 Rocket 4.5 06:24:40 10° SW 06:29:34 38° SSE 06:34:29 10° E
NOSS 2-2 (E) 3.5 06:26:50 10° SW 06:30:57 77° NW 06:35:44 10° NNE
OTV 4 2.4 06:32:39 12° SW 06:33:36 13° SSW 06:35:00 10° S
Cosmos 2227 Rocket 3.8 06:31:29 12° W 06:34:17 17° NW 06:37:50 10° NNW
Cosmos 2016 Rocket 4.2 06:29:23 10° NNW 06:35:28 50° W 06:41:28 10° SSW
Okean-O 3.6 06:37:39 10° N 06:41:26 28° WNW 06:45:12 10° SW
Cosmos 2297 Rocket 3.6 06:39:41 10° W 06:43:31 19° NW 06:47:28 10° N
Cosmos 2058 Rocket 4.3 06:42:23 10° NW 06:45:33 20° W 06:48:45 10° SW
Iridium 4 Rocket 4.2 06:43:41 10° SSE 06:48:34 56° E 06:53:03 10° N
CZ-4B R/B 4.4 06:47:18 10° N 06:50:55 35° WNW 06:54:22 10° SW
Cosmos 2123 Rocket 4.2 06:45:43 10° SSW 06:51:40 50° W 06:57:40 10° N
BREEZE-M DEB (TANK) 3.2 06:41:14 10° WNW 06:51:49 83° SW 06:55:06 10° SE
Aureole 2 Rocket 3.6 06:50:59 10° NW 06:53:35 21° W 06:56:01 10° SSW
SL-24 R/B 4.0 06:49:30 10° N 06:53:47 61° WNW 06:57:36 10° SSW
CSL-04 Rocket 4.0 06:50:55 10° NNE 06:56:12 74° ESE 07:01:29 10° S
Meteor 2-17 Rocket 4.5 06:51:50 10° NNW 06:57:55 65° W 07:03:59 10° S
